Preview of NWS' New Version of Forecast
This preview is not operational and should not be used for support decisions.

Regional Weather Roundup (RWR)

Issued by National Weather Service (NWS)

                            
000
ASUS46 KPQR 170710
RWROR 

OREGON REGIONAL WEATHER ROUNDUP
NATIONAL WEATHER SERVICE PORTLAND OR
1200 AM PDT SAT AUG 17 2019

NOTE: "FAIR" INDICATES FEW OR NO CLOUDS BELOW 12,000 FEET WITH
NO SIGNIFICANT WEATHER AND/OR OBSTRUCTIONS TO VISIBILITY.

ORZ001>013-170800-
NORTHWEST OREGON

  
CITY           SKY/WX    TMP DP  RH WIND       PRES   REMARKS
ASTORIA        CLOUDY    62  58  86 W6        30.07S                  
TILLAMOOK      CLOUDY    61  55  82 CALM      30.10S                  
NEWPORT        PTCLDY    57  52  82 NW7       30.11S                  
PORTLAND       CLEAR     63  52  67 NW8       30.06S                  
VANCOUVER WA   CLEAR     62  52  69 NW5       30.05F                  
SCAPPOOSE      CLOUDY    63  54  72 W5        30.05F                  
HILLSBORO      CLOUDY    62  51  67 N5        30.06F                  
AURORA         PTCLDY    63  50  62 NE3       30.08S                  
MCMINNVILLE    CLEAR     58  51  78 CALM      30.07R                  
SALEM          CLEAR     60  50  69 N7        30.06S                  
CORVALLIS      CLEAR     61  52  72 NW10      30.07R                  
EUGENE         CLEAR     60  50  69 N5        30.06R                  
$$

ORZ021-028-170800-
SOUTHWEST OREGON

  
CITY           SKY/WX    TMP DP  RH WIND       PRES   REMARKS
NORTH BEND     CLEAR     57  54  89 NW6       30.08S                  
BROOKINGS      CLEAR     57  52  83 SE3       29.94R                  
ROSEBURG       CLEAR     66  52  60 CALM      30.03S                  
SEXTON SUMMIT  CLEAR     54  46  74 N14G22    30.08S                  
GRANTS PASS    FAIR      68  50  52 NW7       30.03R                  
MEDFORD        CLEAR     67  36  31 CALM      29.98S                  
$$

ORZ014>016-041-170800-
COLUMBIA GORGE

  
CITY           SKY/WX    TMP DP  RH WIND       PRES   REMARKS
TROUTDALE      CLEAR     61  52  72 W3        30.06S                  
HOOD RIVER     CLEAR     63  52  67 W10G21    29.99S                  
THE DALLES     CLEAR     67  51  56 NW18G28   29.94R                  
$$

ORZ029>031-041-044-049-050-061>064-502-503-505>511-170800-
EASTERN OREGON

  
CITY           SKY/WX    TMP DP  RH WIND       PRES   REMARKS
MADRAS         CLEAR     59  39  47 N13       30.02S                  
REDMOND        CLEAR     53  36  52 S3        30.03R                  
BEND           CLEAR     55  41  58 CALM      30.04R                  
PRINEVILLE     CLEAR     55  37  50 CALM      30.02F                  
KLAMATH FALLS  CLEAR     56  44  64 CALM      30.05R                  
LAKEVIEW       CLEAR     61  33  35 N12       30.07S                  
HERMISTON      CLEAR     69  49  48 SW17G25   29.86S                  
PENDLETON      CLEAR     68  46  45 SW9       29.89S                  
JOHN DAY       CLEAR     63  28  26 CALM      30.00S                  
MEACHAM        PTCLDY    49  35  58 CALM      29.99S                  
LA GRANDE      MOCLDY    65  35  33 W12       29.94F                  
BAKER CITY     CLEAR     57  41  55 W5        29.96S                  
BURNS          CLEAR     55  23  28 W9        30.01S                  
ROME             N/A     54  17  23 S3        29.97R                  
ONTARIO        PTCLDY    69  41  36 W9        29.87S                  
$$